Regional Weather Roundup
Issued by NWS

Home | Current Version | Previous Version | Graphics & Text | Print | Product List | Glossary On
Versions: 1 2 3 4 5 6 7 8 9 10 11 12 13 14 15 16 17 18 19 20 21 22 23 24 25 26 27 28 29 30 31 32 33 34 35 36 37 38 39 40 41 42 43 44 45 46 47 48 49 50
000
ASUS45 KCYS 180010
RWRWY

WYOMING REGIONAL WEATHER ROUNDUP
NATIONAL WEATHER SERVICE CHEYENNE WY
500 PM MST FRI NOV 17 2017

NOTE:  "FAIR" INDICATES FEW OR NO CLOUDS BELOW 12,000 FEET
WITH NO SIGNIFICANT WEATHER AND/OR OBSTRUCTIONS TO VISIBILITY.

WYZ001-180100-
YELLOWSTONE NATIONAL PARK

CITY           SKY/WX    TMP DP  RH WIND       PRES   REMARKS
LK YELLOWSTONE   N/A     17  12  80 VRB5      29.86R WCI  10
6HR MIN TEMP:  17; 6HR MAX TEMP:  25; 6HR PCP:  0.03;

W YELLOWSTONE  NOT AVBL

$$
WYZ002>013-054>058-071-098>099-180100-
NORTHERN WYOMING

CITY           SKY/WX    TMP DP  RH WIND       PRES   REMARKS
JACKSON        NOT AVBL
CODY           FAIR      34  21  59 W10       29.81R WCI  26
GREYBULL       CLOUDY    40  16  37 NW20G30   29.78R WCI  30
6HR MIN TEMP:  40; 6HR MAX TEMP:  45; 6HR PCP: TRACE;

WORLAND        CLOUDY    38  22  52 N20G28    29.79R WCI  28
6HR MIN TEMP:  37; 6HR MAX TEMP:  41;

SHERIDAN       CLOUDY    35  31  85 NE7       29.77R WCI  29
6HR MIN TEMP:  34; 6HR MAX TEMP:  43; 6HR PCP:  0.03;

BUFFALO        CLOUDY    32  29  88 NW8       29.75R WCI  25
6HR MIN TEMP:  32; 6HR MAX TEMP:  35; 6HR PCP:  0.07;

GILLETTE       MOCLDY    34  31  88 W10       29.71R WCI  26
6HR MIN TEMP:  34; 6HR MAX TEMP:  37; 6HR PCP: TRACE;

HULETT         MOCLDY    36  32  87 SW5       29.73R WCI  32
NEWCASTLE      FAIR      36  32  87 NW14      29.71R WCI  27

$$
WYZ014>020-022>026-101>103-180100-
CENTRAL WYOMING

CITY           SKY/WX    TMP DP  RH WIND       PRES   REMARKS
BIG PINEY      FAIR      24  19  81 W10       29.86R WCI  14
6HR MIN TEMP:  24; 6HR MAX TEMP:  33; 6HR PCP: TRACE;

PINEDALE       FAIR      27  18  69 W18G25    29.85R WCI  13
DUBOIS         LGT SNOW  23  18  80 NW20      29.82R WCI   8
LANDER         NOT AVBL
RIVERTON       FAIR      34  25  69 VRB3      29.75R
6HR MIN TEMP:  34; 6HR MAX TEMP:  48; 6HR PCP: TRACE;

CASPER         CLOUDY    32  31  96 CALM      29.75R
6HR MIN TEMP:  32; 6HR MAX TEMP:  43; 6HR PCP:  0.09;

DOUGLAS        LGT SNOW  32  32 100 N15G24    29.71R VSB 1   WCI  22
6HR MIN TEMP:  32; 6HR MAX TEMP:  49; 6HR PCP:  0.06;


$$
WYZ021-027>030-104>119-180100-
SOUTHERN WYOMING

CITY           SKY/WX    TMP DP  RH WIND       PRES   REMARKS
EVANSTON       FAIR      24  18  77 W17       29.98R WCI  11
6HR MIN TEMP:  24; 6HR MAX TEMP:  31; 6HR PCP:  0.05;

FORT BRIDGER   MOCLDY    27  25  92 W17G29    29.98R WCI  14
ROCK SPRINGS   MOCLDY    27  23  85 W25       29.85R WCI  12
6HR MIN TEMP:  27; 6HR MAX TEMP:  32; 6HR PCP:  0.01;

DIXON          LGT SNOW  32  31  96 W12       29.88R WCI  23
RAWLINS        LGT SNOW  32  27  81 W25G38    29.76R WCI  19
6HR MIN TEMP:  32; 6HR MAX TEMP:  35; 6HR PCP:  0.02;

SARATOGA       LGT SNOW  32  32 100 W13       29.80R WCI  22
LARAMIE        LGT SNOW  31  29  92 NW22G28   29.73R FOG     WCI  18
6HR MIN TEMP:  31; 6HR MAX TEMP:  36; 6HR PCP:  0.04;

CHEYENNE       MOCLDY    37  31  78 NW14G24   29.68F WCI  28
6HR MIN TEMP:  37; 6HR MAX TEMP:  53; 6HR PCP:  0.11;

TORRINGTON     MOCLDY    44  36  73 W7        29.64R
6HR MIN TEMP:  41; 6HR MAX TEMP:  46; 6HR PCP:  0.04;

PINE BLUFFS    CLOUDY    39  36  87 MISG      29.69R

$$



USA.gov is the U.S. government's official web portal to all federal, state and local government web resources and services.